,,Stat6,,Stat2,,Stat8,,Stat9,,Stat10,,Wind1,,Wind1
time,status,PA1M_AVG,status,PR1M_SUM,status,RH1M_AVG,status,SR1M_AVG,status,TA1M_AVG,status,W1dAve1m,status,W1sAve1m
2009-03-14, 00:00:00,VALID,919.602,VALID,0,VALID,100,VALID,-0.101885,VALID,19.1527,VALID,158,VALID,0.672066
2009-03-14, 00:01:00,VALID,919.588,VALID,0,VALID,100,VALID,-0.101885,VALID,19.1627,VALID,163,VALID,0.765625
2009-03-14, 00:02:00,VALID,919.586,VALID,0,VALID,100,VALID,-0.118866,VALID,19.146,VALID,157,VALID,1.30295
2009-03-14, 00:03:00,VALID,919.585,VALID,0,VALID,100,VALID,-0.118866,VALID,19.1527,VALID,160,VALID,1.27474
2009-03-14, 00:04:00,VALID,919.584,VALID,0,VALID,100,VALID,-0.101885,VALID,19.1522,VALID,161,VALID,0.869792
2009-03-14, 00:05:00,VALID,919.579,VALID,0,VALID,100,VALID,-0.118866,VALID,19.1492,VALID,159,VALID,0.723586
2009-03-14, 00:06:00,VALID,919.569,VALID,0,VALID,100,VALID,-0.0849042,VALID,19.1557,VALID,151,VALID,0.857376
2009-03-14, 00:07:00,VALID,919.546,VALID,0,VALID,100,VALID,-0.101885,VALID,19.156,VALID,139,VALID,0.790661
2009-03-14, 00:08:00,VALID,919.532,VALID,0,VALID,100,VALID,-0.0339617,VALID,19.1547,VALID,145,VALID,0.761186
2009-03-14, 00:09:00,VALID,919.523,VALID,0,VALID,100,VALID,0,VALID,19.1543,VALID,146,VALID,0.895064
2009-03-14, 00:10:00,VALID,919.51,VALID,0,VALID,100,VALID,0,VALID,19.1478,VALID,158,VALID,1.22283
2009-03-14, 00:11:00,VALID,919.487,VALID,0,VALID,100,VALID,0,VALID,19.1415,VALID,156,VALID,1.44087
2009-03-14, 00:12:00,VALID,919.467,VALID,0,VALID,100,VALID,-0.0339617,VALID,19.1318,VALID,171,VALID,1.10385
2009-03-14, 00:13:00,VALID,919.438,VALID,0,VALID,100,VALID,0,VALID,19.1348,VALID,167,VALID,0.850195
2009-03-14, 00:14:00,VALID,919.426,VALID,0,VALID,100,VALID,-0.0169808,VALID,19.1348,VALID,162,VALID,1.39635
2009-03-14, 00:15:00,VALID,919.402,VALID,0,VALID,100,VALID,-0.0509425,VALID,19.1253,VALID,153,VALID,1.43864
2009-03-14, 00:16:00,VALID,919.372,VALID,0,VALID,100,VALID,0,VALID,19.1186,VALID,153,VALID,1.23103
2009-03-14, 00:17:00,VALID,919.354,VALID,0,VALID,100,VALID,-0.0169808,VALID,19.1123,VALID,137,VALID,0.879297
2009-03-14, 00:18:00,VALID,919.342,VALID,0,VALID,100,VALID,-0.0169808,VALID,19.0956,VALID,153,VALID,1.54277
2009-03-14, 00:19:00,VALID,919.332,VALID,0,VALID,100,VALID,0,VALID,19.0864,VALID,141,VALID,1.30503
2009-03-14, 00:20:00,VALID,919.32,VALID,0,VALID,100,VALID,-0.0169808,VALID,19.0762,VALID,149,VALID,0.964844
2009-03-14, 00:21:00,VALID,919.317,VALID,0,VALID,100,VALID,-0.0169808,VALID,19.0764,VALID,149,VALID,1.0333
2009-03-14, 00:22:00,VALID,919.305,VALID,0,VALID,100,VALID,-0.0169808,VALID,19.0729,VALID,146,VALID,0.71503
2009-03-14, 00:23:00,VALID,919.3,VALID,0,VALID,100,VALID,-0.0339617,VALID,19.0567,VALID,161,VALID,0.508333
2009-03-14, 00:24:00,VALID,919.288,VALID,0,VALID,100,VALID,-0.0169808,VALID,19.0572,VALID,160,VALID,0.460029
2009-03-14, 00:25:00,VALID,919.283,VALID,0,VALID,100,VALID,-0.0169808,VALID,19.0672,VALID,176,VALID,0.701265
2009-03-14, 00:26:00,VALID,919.266,VALID,0,VALID,100,VALID,0,VALID,19.0667,VALID,166,VALID,0.497954
2009-03-14, 00:27:00,VALID,919.267,VALID,0,VALID,100,VALID,-0.0169808,VALID,19.0766,VALID,162,VALID,0.190225
2009-03-14, 00:28:00,VALID,919.239,VALID,0,VALID,100,VALID,0,VALID,19.0634,VALID,169,VALID,0.919876
2009-03-14, 00:29:00,VALID,919.219,VALID,0,VALID,100,VALID,0,VALID,19.0604,VALID,162,VALID,0.568132
2009-03-14, 00:30:00,VALID,919.194,VALID,0,VALID,100,VALID,-0.0169808,VALID,19.0567,VALID,160,VALID,1.23765
2009-03-14, 00:31:00,VALID,919.175,VALID,0,VALID,100,VALID,0,VALID,19.0604,VALID,168,VALID,1.45122
2009-03-14, 00:32:00,VALID,919.155,VALID,0,VALID,100,VALID,0,VALID,19.0569,VALID,162,VALID,1.03543
2009-03-14, 00:33:00,VALID,919.151,VALID,0,VALID,100,VALID,-0.0339617,VALID,19.0602,VALID,155,VALID,1.30508
2009-03-14, 00:34:00,VALID,919.131,VALID,0,VALID,100,VALID,0,VALID,19.0634,VALID,166,VALID,1.61328
2009-03-14, 00:35:00,VALID,919.124,VALID,0,VALID,100,VALID,0,VALID,19.0569,VALID,161,VALID,1.11955
2009-03-14, 00:36:00,VALID,919.112,VALID,0,VALID,100,VALID,0,VALID,19.044,VALID,157,VALID,1.31432
2009-03-14, 00:37:00,VALID,919.095,VALID,0,VALID,100,VALID,0,VALID,19.0305,VALID,161,VALID,1.20058
2009-03-14, 00:38:00,VALID,919.079,VALID,0,VALID,100,VALID,0,VALID,19.0273,VALID,172,VALID,1.14063
2009-03-14, 00:39:00,VALID,919.072,VALID,0,VALID,100,VALID,0.0169808,VALID,19.0372,VALID,164,VALID,1.49521
2009-03-14, 00:40:00,VALID,919.058,VALID,0,VALID,100,VALID,0,VALID,19.0375,VALID,173,VALID,1.42299
2009-03-14, 00:41:00,VALID,919.033,VALID,0,VALID,100,VALID,0,VALID,19.034,VALID,164,VALID,1.67473
2009-03-14, 00:42:00,VALID,919.02,VALID,0,VALID,100,VALID,-0.0169808,VALID,19.0078,VALID,168,VALID,1.54616
2009-03-14, 00:43:00,VALID,919.012,VALID,0,VALID,100,VALID,0.0169808,VALID,19.0145,VALID,164,VALID,1.18839
2009-03-14, 00:44:00,VALID,918.999,VALID,0,VALID,100,VALID,0,VALID,19.0115,VALID,158,VALID,1.64879
2009-03-14, 00:45:00,VALID,918.997,VALID,0,VALID,100,VALID,0,VALID,18.9953,VALID,162,VALID,1.63839
2009-03-14, 00:46:00,VALID,918.981,VALID,0,VALID,100,VALID,0.0339617,VALID,18.9953,VALID,174,VALID,1.18378
2009-03-14, 00:47:00,VALID,918.972,VALID,0,VALID,100,VALID,0.0339617,VALID,18.9888,VALID,167,VALID,1.28181
2009-03-14, 00:48:00,VALID,918.961,VALID,0,VALID,100,VALID,0,VALID,18.9921,VALID,182,VALID,0.843229
2009-03-14, 00:49:00,VALID,918.953,VALID,0,VALID,100,VALID,0.0339617,VALID,18.9921,VALID,169,VALID,1.14684
2009-03-14, 00:50:00,VALID,918.945,VALID,0,VALID,100,VALID,0,VALID,18.9756,VALID,160,VALID,1.71484
2009-03-14, 00:51:00,VALID,918.936,VALID,0,VALID,100,VALID,0,VALID,18.9721,VALID,164,VALID,1.55469
2009-03-14, 00:52:00,VALID,918.918,VALID,0,VALID,100,VALID,0.0509425,VALID,18.9721,VALID,156,VALID,1.3859
2009-03-14, 00:53:00,VALID,918.895,VALID,0,VALID,100,VALID,0,VALID,18.9886,VALID,145,VALID,1.29018
2009-03-14, 00:54:00,VALID,918.869,VALID,0,VALID,100,VALID,-0.0169808,VALID,19.0023,VALID,148,VALID,1.26667
2009-03-14, 00:55:00,VALID,918.853,VALID,0,VALID,100,VALID,0,VALID,18.9916,VALID,155,VALID,1.51344
2009-03-14, 00:56:00,VALID,918.835,VALID,0,VALID,100,VALID,0,VALID,19.0046,VALID,157,VALID,1.06845
2009-03-14, 00:57:00,VALID,918.821,VALID,0,VALID,100,VALID,-0.0169808,VALID,19.0145,VALID,160,VALID,0.681504
2009-03-14, 00:58:00,VALID,918.813,VALID,0,VALID,100,VALID,0,VALID,19.0046,VALID,158,VALID,1.27734
2009-03-14, 00:59:00,VALID,918.793,VALID,0,VALID,100,VALID,0,VALID,19.0046,VALID,157,VALID,1.51432
2009-03-14, 01:00:00,VALID,918.805,VALID,0,VALID,100,VALID,0,VALID,19.0148,VALID,154,VALID,0.780134
2009-03-14, 01:01:00,VALID,918.783,VALID,0.2,VALID,100,VALID,-0.0169808,VALID,19.005,VALID,148,VALID,1.1408
2009-03-14, 01:02:00,VALID,918.767,VALID,0,VALID,100,VALID,0,VALID,19.008,VALID,170,VALID,0.93045
2009-03-14, 01:03:00,VALID,918.761,VALID,0,VALID,100,VALID,-0.0169808,VALID,19.0078,VALID,168,VALID,1.29111
2009-03-14, 01:04:00,VALID,918.742,VALID,0,VALID,100,VALID,-0.0169808,VALID,19.021,VALID,159,VALID,0.932736
2009-03-14, 01:05:00,VALID,918.719,VALID,0,VALID,100,VALID,0,VALID,19.0178,VALID,154,VALID,1.34059
2009-03-14, 01:06:00,VALID,918.718,VALID,0,VALID,100,VALID,0,VALID,19.0113,VALID,168,VALID,1.19345
2009-03-14, 01:07:00,VALID,918.701,VALID,0,VALID,100,VALID,0,VALID,19.008,VALID,161,VALID,1.31436
2009-03-14, 01:08:00,VALID,918.684,VALID,0,VALID,100,VALID,-0.0169808,VALID,18.9986,VALID,164,VALID,0.96733
2009-03-14, 01:09:00,VALID,918.682,VALID,0,VALID,100,VALID,0,VALID,18.9918,VALID,152,VALID,1.4026
2009-03-14, 01:10:00,VALID,918.667,VALID,0,VALID,100,VALID,-0.0339617,VALID,18.9724,VALID,153,VALID,1.3391
2009-03-14, 01:11:00,VALID,918.645,VALID,0,VALID,100,VALID,0,VALID,18.9886,VALID,167,VALID,1.14531
2009-03-14, 01:12:00,VALID,918.633,VALID,0,VALID,100,VALID,-0.0169808,VALID,19.008,VALID,165,VALID,1.21165
2009-03-14, 01:13:00,VALID,918.627,VALID,0,VALID,100,VALID,-0.0509425,VALID,19.0178,VALID,154,VALID,1.08743
2009-03-14, 01:14:00,VALID,918.617,VALID,0,VALID,100,VALID,-0.0169808,VALID,19.028,VALID,170,VALID,0.95625
2009-03-14, 01:15:00,VALID,918.612,VALID,0,VALID,100,VALID,-0.0169808,VALID,19.031,VALID,167,VALID,1.1309
2009-03-14, 01:16:00,VALID,918.59,VALID,0,VALID,100,VALID,-0.0169808,VALID,19.0342,VALID,155,VALID,0.863281
2009-03-14, 01:17:00,VALID,918.57,VALID,0,VALID,100,VALID,-0.0169808,VALID,19.0342,VALID,158,VALID,1.20512
2009-03-14, 01:18:00,VALID,918.559,VALID,0,VALID,100,VALID,-0.0339617,VALID,19.031,VALID,151,VALID,1.09375
2009-03-14, 01:19:00,VALID,918.54,VALID,0,VALID,100,VALID,0,VALID,19.0143,VALID,151,VALID,1.14996
2009-03-14, 01:20:00,VALID,918.53,VALID,0,VALID,100,VALID,0,VALID,19.008,VALID,155,VALID,1.06765
2009-03-14, 01:21:00,VALID,918.528,VALID,0,VALID,100,VALID,0,VALID,18.9978,VALID,164,VALID,1.06498
2009-03-14, 01:22:00,VALID,918.518,VALID,0,VALID,100,VALID,0,VALID,19.0018,VALID,165,VALID,1.10332
2009-03-14, 01:23:00,VALID,918.499,VALID,0,VALID,100,VALID,-0.0679233,VALID,19.0028,VALID,160,VALID,1.06016
2009-03-14, 01:24:00,VALID,918.495,VALID,0,VALID,100,VALID,-0.101885,VALID,19,VALID,163,VALID,1.25091
2009-03-14, 01:25:00,VALID,918.477,VALID,0,VALID,100,VALID,-0.0849042,VALID,18.9895,VALID,159,VALID,1.01074
2009-03-14, 01:26:00,VALID,918.465,VALID,0,VALID,100,VALID,-0.101885,VALID,18.9933,VALID,162,VALID,0.858994
2009-03-14, 01:27:00,VALID,918.447,VALID,0,VALID,100,VALID,-0.135847,VALID,18.9861,VALID,157,VALID,1.47917
2009-03-14, 01:28:00,VALID,918.423,VALID,0,VALID,100,VALID,-0.101885,VALID,18.9963,VALID,167,VALID,1.07254
2009-03-14, 01:29:00,VALID,918.405,VALID,0,VALID,100,VALID,-0.101885,VALID,18.993,VALID,157,VALID,1.50057
2009-03-14, 01:30:00,VALID,918.391,VALID,0,VALID,100,VALID,-0.0849042,VALID,19.0028,VALID,155,VALID,1.31403
2009-03-14, 01:31:00,VALID,918.377,VALID,0,VALID,100,VALID,-0.101885,VALID,19.0097,VALID,154,VALID,1.23976
2009-03-14, 01:32:00,VALID,918.363,VALID,0,VALID,100,VALID,-0.101885,VALID,19.0028,VALID,157,VALID,1.2378
2009-03-14, 01:33:00,VALID,918.343,VALID,0,VALID,100,VALID,-0.101885,VALID,19.0127,VALID,156,VALID,1.21001
2009-03-14, 01:34:00,VALID,918.332,VALID,0,VALID,100,VALID,-0.0849042,VALID,19.0257,VALID,139,VALID,1.56302
2009-03-14, 01:35:00,VALID,918.313,VALID,0,VALID,100,VALID,-0.101885,VALID,19.0454,VALID,149,VALID,1.26126
2009-03-14, 01:36:00,VALID,918.306,VALID,0,VALID,100,VALID,-0.0849042,VALID,19.0544,VALID,139,VALID,1.19159
2009-03-14, 01:37:00,VALID,918.296,VALID,0,VALID,100,VALID,-0.101885,VALID,19.0676,VALID,138,VALID,1.07156
2009-03-14, 01:38:00,VALID,918.282,VALID,0,VALID,100,VALID,-0.101885,VALID,19.0871,VALID,145,VALID,1.75391
2009-03-14, 01:39:00,VALID,918.278,VALID,0,VALID,100,VALID,-0.0679233,VALID,19.0933,VALID,137,VALID,1.17578
2009-03-14, 01:40:00,VALID,918.262,VALID,0,VALID,100,VALID,-0.101885,VALID,19.1098,VALID,126,VALID,1.77232
2009-03-14, 01:41:00,VALID,918.254,VALID,0,VALID,100,VALID,-0.101885,VALID,19.1557,VALID,129,VALID,1.64044
2009-03-14, 01:42:00,VALID,918.229,VALID,0,VALID,100,VALID,-0.118866,VALID,19.1682,VALID,122,VALID,1.10175
2009-03-14, 01:43:00,VALID,918.226,VALID,0,VALID,100,VALID,-0.118866,VALID,19.1749,VALID,123,VALID,0.999442
2009-03-14, 01:44:00,VALID,918.211,VALID,0,VALID,100,VALID,-0.101885,VALID,19.1622,VALID,128,VALID,1.25654
2009-03-14, 01:45:00,VALID,918.184,VALID,0,VALID,100,VALID,-0.118866,VALID,19.1427,VALID,127,VALID,1.42587
2009-03-14, 01:46:00,VALID,918.182,VALID,0,VALID,100,VALID,-0.101885,VALID,19.133,VALID,124,VALID,1.52958
2009-03-14, 01:47:00,VALID,918.166,VALID,0,VALID,100,VALID,-0.101885,VALID,19.1295,VALID,116,VALID,1.02012
2009-03-14, 01:48:00,VALID,918.153,VALID,0,VALID,100,VALID,-0.118866,VALID,19.1233,VALID,114,VALID,0.740945
2009-03-14, 01:49:00,VALID,918.138,VALID,0,VALID,100,VALID,-0.135847,VALID,19.1036,VALID,115,VALID,0.645833
2009-03-14, 01:50:00,VALID,918.111,VALID,0,VALID,100,VALID,-0.101885,VALID,19.0744,VALID,121,VALID,0.853743
2009-03-14, 01:51:00,VALID,918.103,VALID,0,VALID,100,VALID,-0.118866,VALID,19.0577,VALID,121,VALID,0.733422
2009-03-14, 01:52:00,VALID,918.08,VALID,0,VALID,100,VALID,-0.0849042,VALID,19.0419,VALID,133,VALID,0.991493
2009-03-14, 01:53:00,VALID,918.084,VALID,0,VALID,100,VALID,-0.0339617,VALID,19.038,VALID,121,VALID,1.0129
2009-03-14, 01:54:00,VALID,918.071,VALID,0,VALID,100,VALID,0.0169808,VALID,19.024,VALID,130,VALID,1.14135
2009-03-14, 01:55:00,VALID,918.059,VALID,0,VALID,100,VALID,-0.0169808,VALID,19.0375,VALID,125,VALID,1.16139
2009-03-14, 01:56:00,VALID,918.051,VALID,0,VALID,100,VALID,0,VALID,19.037,VALID,112,VALID,1.18623
2009-03-14, 01:57:00,VALID,918.043,VALID,0,VALID,100,VALID,-0.0169808,VALID,19.0535,VALID,100,VALID,0.694568
2009-03-14, 01:58:00,VALID,918.032,VALID,0,VALID,100,VALID,-0.0169808,VALID,19.0567,VALID,121,VALID,1.14657
2009-03-14, 01:59:00,VALID,918.016,VALID,0,VALID,100,VALID,0,VALID,19.05,VALID,132,VALID,1.04501
2009-03-14, 02:00:00,VALID,918.001,VALID,0,VALID,100,VALID,-0.0169808,VALID,19.036,VALID,113,VALID,0.677539
2009-03-14, 02:01:00,VALID,917.981,VALID,0,VALID,100,VALID,0.0169808,VALID,19.0335,VALID,114,VALID,0.765224
2009-03-14, 02:02:00,VALID,917.964,VALID,0,VALID,100,VALID,0.0169808,VALID,19.0505,VALID,134,VALID,1.20713
2009-03-14, 02:03:00,VALID,917.949,VALID,0,VALID,100,VALID,0,VALID,19.0697,VALID,129,VALID,1.08872
2009-03-14, 02:04:00,VALID,917.919,VALID,0,VALID,100,VALID,0,VALID,19.0692,VALID,125,VALID,1.04514
2009-03-14, 02:05:00,VALID,917.893,VALID,0,VALID,100,VALID,-0.0339617,VALID,19.0762,VALID,121,VALID,1.00816
2009-03-14, 02:06:00,VALID,917.882,VALID,0,VALID,100,VALID,-0.0339617,VALID,19.0694,VALID,119,VALID,0.78497
2009-03-14, 02:07:00,VALID,917.862,VALID,0,VALID,100,VALID,-0.0339617,VALID,19.0664,VALID,130,VALID,0.544271
2009-03-14, 02:08:00,VALID,917.845,VALID,0,VALID,100,VALID,-0.0169808,VALID,19.0537,VALID,124,VALID,0.759375
2009-03-14, 02:09:00,VALID,917.828,VALID,0,VALID,100,VALID,-0.0339617,VALID,19.0342,VALID,121,VALID,0.669271
2009-03-14, 02:10:00,VALID,917.807,VALID,0,VALID,100,VALID,0,VALID,19.0175,VALID,124,VALID,0.689732
2009-03-14, 02:11:00,VALID,917.787,VALID,0,VALID,100,VALID,-0.0169808,VALID,19.0048,VALID,124,VALID,0.727471
2009-03-14, 02:12:00,VALID,917.768,VALID,0,VALID,100,VALID,-0.0169808,VALID,18.9886,VALID,109,VALID,0.552778
2009-03-14, 02:13:00,VALID,917.747,VALID,0,VALID,100,VALID,-0.0339617,VALID,18.9724,VALID,135,VALID,0.876953
2009-03-14, 02:14:00,VALID,917.73,VALID,0,VALID,100,VALID,-0.0339617,VALID,18.9559,VALID,117,VALID,0.62157
2009-03-14, 02:15:00,VALID,917.706,VALID,0,VALID,100,VALID,-0.0169808,VALID,18.9499,VALID,108,VALID,0.238198
2009-03-14, 02:16:00,VALID,917.703,VALID,0,VALID,100,VALID,-0.0169808,VALID,18.9337,VALID,114,VALID,0.313953
2009-03-14, 02:17:00,VALID,917.681,VALID,0,VALID,100,VALID,-0.0339617,VALID,18.9142,VALID,118,VALID,0.429501
2009-03-14, 02:18:00,VALID,917.661,VALID,0,VALID,100,VALID,-0.0679233,VALID,18.911,VALID,134,VALID,0.468387
2009-03-14, 02:19:00,VALID,917.652,VALID,0,VALID,100,VALID,-0.0509425,VALID,18.908,VALID,130,VALID,0
2009-03-14, 02:20:00,VALID,917.641,VALID,0,VALID,100,VALID,0,VALID,18.8878,VALID,130,VALID,0
2009-03-14, 02:21:00,VALID,917.619,VALID,0,VALID,100,VALID,-0.0169808,VALID,18.8783,VALID,128,VALID,0.0968071
2009-03-14, 02:22:00,VALID,917.586,VALID,0,VALID,100,VALID,0,VALID,18.8815,VALID,126,VALID,0.570131
2009-03-14, 02:23:00,VALID,917.57,VALID,0,VALID,100,VALID,-0.0849042,VALID,18.876,VALID,123,VALID,0.707209
2009-03-14, 02:24:00,VALID,917.543,VALID,0,VALID,100,VALID,-0.135847,VALID,18.8899,VALID,117,VALID,0.610224
2009-03-14, 02:25:00,VALID,917.525,VALID,0,VALID,100,VALID,-0.118866,VALID,18.8732,VALID,117,VALID,0.56529
2009-03-14, 02:26:00,VALID,917.499,VALID,0,VALID,100,VALID,-0.101885,VALID,18.8533,VALID,117,VALID,0.106771
2009-03-14, 02:27:00,VALID,917.463,VALID,0,VALID,100,VALID,-0.101885,VALID,18.8565,VALID,109,VALID,0.19549
2009-03-14, 02:28:00,VALID,917.452,VALID,0,VALID,100,VALID,-0.101885,VALID,18.8403,VALID,91,VALID,0.581499
2009-03-14, 02:29:00,VALID,917.422,VALID,0,VALID,100,VALID,-0.101885,VALID,18.8246,VALID,84,VALID,0.540015
2009-03-14, 02:30:00,VALID,917.387,VALID,0,VALID,100,VALID,-0.135847,VALID,18.8146,VALID,86,VALID,0.146076
2009-03-14, 02:31:00,VALID,917.367,VALID,0,VALID,100,VALID,-0.101885,VALID,18.7819,VALID,90,VALID,0.378516
2009-03-14, 02:32:00,VALID,917.345,VALID,0,VALID,100,VALID,-0.118866,VALID,18.7954,VALID,81,VALID,0.680382
2009-03-14, 02:33:00,VALID,917.326,VALID,0,VALID,100,VALID,-0.101885,VALID,18.7951,VALID,76,VALID,0.711301
2009-03-14, 02:34:00,VALID,917.301,VALID,0,VALID,100,VALID,-0.135847,VALID,18.7986,VALID,83,VALID,0.550495
2009-03-14, 02:35:00,VALID,917.278,VALID,0,VALID,100,VALID,-0.135847,VALID,18.7889,VALID,88,VALID,0.0204613
2009-03-14, 02:36:00,VALID,917.248,VALID,0,VALID,100,VALID,-0.135847,VALID,18.7789,VALID,79,VALID,0.0592296
2009-03-14, 02:37:00,VALID,917.244,VALID,0,VALID,100,VALID,-0.169808,VALID,18.7926,VALID,99,VALID,0.361806
2009-03-14, 02:38:00,VALID,917.229,VALID,0,VALID,100,VALID,-0.0339617,VALID,18.8009,VALID,99,VALID,0.205433
2009-03-14, 02:39:00,VALID,917.216,VALID,0,VALID,100,VALID,-0.0169808,VALID,18.794,VALID,115,VALID,0.249467
2009-03-14, 02:40:00,VALID,917.207,VALID,0,VALID,100,VALID,0,VALID,18.8039,VALID,134,VALID,0.185976
2009-03-14, 02:41:00,VALID,917.192,VALID,0,VALID,100,VALID,-0.0339617,VALID,18.8004,VALID,150,VALID,0.305618
2009-03-14, 02:42:00,VALID,917.169,VALID,0,VALID,100,VALID,-0.0169808,VALID,18.7972,VALID,154,VALID,0.326953
2009-03-14, 02:43:00,VALID,917.17,VALID,0,VALID,100,VALID,0,VALID,18.8032,VALID,159,VALID,0.411204
2009-03-14, 02:44:00,VALID,917.154,VALID,0,VALID,100,VALID,-0.0169808,VALID,18.8034,VALID,151,VALID,0.537946
2009-03-14, 02:45:00,VALID,917.125,VALID,0,VALID,100,VALID,-0.0169808,VALID,18.8039,VALID,151,VALID,0.206174
2009-03-14, 02:46:00,VALID,917.119,VALID,0,VALID,100,VALID,-0.0169808,VALID,18.794,VALID,141,VALID,0.179688
2009-03-14, 02:47:00,VALID,917.075,VALID,0,VALID,100,VALID,-0.0169808,VALID,18.7715,VALID,134,VALID,0.892223
2009-03-14, 02:48:00,VALID,917.065,VALID,0,VALID,100,VALID,-0.0509425,VALID,18.7613,VALID,135,VALID,1.17492
2009-03-14, 02:49:00,VALID,917.051,VALID,0,VALID,100,VALID,0,VALID,18.7515,VALID,132,VALID,1.24258
2009-03-14, 02:50:00,VALID,917.026,VALID,0,VALID,100,VALID,-0.0339617,VALID,18.7455,VALID,135,VALID,1.32209
2009-03-14, 02:51:00,VALID,917.013,VALID,0,VALID,100,VALID,-0.0169808,VALID,18.7351,VALID,138,VALID,1.29821
2009-03-14, 02:52:00,VALID,917.006,VALID,0,VALID,100,VALID,-0.0169808,VALID,18.7388,VALID,138,VALID,1.29557
2009-03-14, 02:53:00,VALID,916.996,VALID,0,VALID,100,VALID,0,VALID,18.7481,VALID,145,VALID,1.50156
2009-03-14, 02:54:00,VALID,916.99,VALID,0,VALID,100,VALID,-0.0169808,VALID,18.7613,VALID,135,VALID,0.99814
2009-03-14, 02:55:00,VALID,916.988,VALID,0,VALID,100,VALID,-0.0169808,VALID,18.7773,VALID,138,VALID,1.58166
2009-03-14, 02:56:00,VALID,916.982,VALID,0,VALID,100,VALID,-0.0169808,VALID,18.8039,VALID,147,VALID,1.29427
2009-03-14, 02:57:00,VALID,916.967,VALID,0,VALID,100,VALID,0,VALID,18.8099,VALID,147,VALID,1.56613
2009-03-14, 02:58:00,VALID,916.953,VALID,0,VALID,100,VALID,0,VALID,18.8159,VALID,135,VALID,1.29669
2009-03-14, 02:59:00,VALID,916.936,VALID,0,VALID,100,VALID,-0.0169808,VALID,18.8224,VALID,145,VALID,1.41555
2009-03-14, 03:00:00,VALID,916.92,VALID,0,VALID,100,VALID,0,VALID,18.8125,VALID,139,VALID,1.13597
2009-03-14, 03:01:00,VALID,916.92,VALID,0,VALID,100,VALID,-0.0509425,VALID,18.8326,VALID,153,VALID,1.00345
2009-03-14, 03:02:00,VALID,916.909,VALID,0,VALID,100,VALID,-0.0169808,VALID,18.8359,VALID,143,VALID,1.38281
2009-03-14, 03:03:00,VALID,916.904,VALID,0,VALID,100,VALID,0,VALID,18.8356,VALID,148,VALID,1.64553
2009-03-14, 03:04:00,VALID,916.887,VALID,0,VALID,100,VALID,0,VALID,18.8521,VALID,146,VALID,1.4096
2009-03-14, 03:05:00,VALID,916.861,VALID,0,VALID,100,VALID,0,VALID,18.8716,VALID,144,VALID,1.34993
2009-03-14, 03:06:00,VALID,916.842,VALID,0,VALID,100,VALID,-0.0169808,VALID,18.8741,VALID,148,VALID,1.33389
2009-03-14, 03:07:00,VALID,916.836,VALID,0,VALID,100,VALID,0,VALID,18.8878,VALID,148,VALID,2.09414
2009-03-14, 03:08:00,VALID,916.827,VALID,0,VALID,100,VALID,-0.0679233,VALID,18.8915,VALID,151,VALID,1.56707
2009-03-14, 03:09:00,VALID,916.796,VALID,0,VALID,100,VALID,-0.118866,VALID,18.8987,VALID,146,VALID,1.76321
2009-03-14, 03:10:00,VALID,916.787,VALID,0,VALID,100,VALID,-0.101885,VALID,18.9087,VALID,148,VALID,1.49851
2009-03-14, 03:11:00,VALID,916.772,VALID,0,VALID,100,VALID,-0.118866,VALID,18.9284,VALID,147,VALID,1.41352
2009-03-14, 03:12:00,VALID,916.747,VALID,0,VALID,100,VALID,-0.118866,VALID,18.9251,VALID,140,VALID,1.69059
2009-03-14, 03:13:00,VALID,916.72,VALID,0,VALID,100,VALID,-0.101885,VALID,18.9149,VALID,141,VALID,1.68576
2009-03-14, 03:14:00,VALID,916.68,VALID,0,VALID,100,VALID,-0.101885,VALID,18.9346,VALID,132,VALID,1.66842
2009-03-14, 03:15:00,VALID,916.667,VALID,0,VALID,100,VALID,-0.101885,VALID,18.9242,VALID,149,VALID,1.69082
2009-03-14, 03:16:00,VALID,916.647,VALID,0,VALID,100,VALID,-0.135847,VALID,18.9344,VALID,142,VALID,1.63228
2009-03-14, 03:17:00,VALID,916.621,VALID,0,VALID,100,VALID,-0.135847,VALID,18.9381,VALID,146,VALID,1.95414
2009-03-14, 03:18:00,VALID,916.61,VALID,0,VALID,100,VALID,-0.101885,VALID,18.9478,VALID,138,VALID,1.33918
2009-03-14, 03:19:00,VALID,916.594,VALID,0,VALID,100,VALID,-0.118866,VALID,18.9476,VALID,142,VALID,1.56428
2009-03-14, 03:20:00,VALID,916.589,VALID,0,VALID,100,VALID,-0.118866,VALID,18.9406,VALID,146,VALID,1.69364
2009-03-14, 03:21:00,VALID,916.575,VALID,0,VALID,100,VALID,-0.101885,VALID,18.9543,VALID,146,VALID,1.5824
2009-03-14, 03:22:00,VALID,916.571,VALID,0,VALID,100,VALID,-0.135847,VALID,18.9446,VALID,147,VALID,1.47781
2009-03-14, 03:23:00,VALID,916.575,VALID,0,VALID,100,VALID,-0.118866,VALID,18.9344,VALID,151,VALID,1.5665
2009-03-14, 03:24:00,VALID,916.566,VALID,0,VALID,100,VALID,-0.101885,VALID,18.9112,VALID,139,VALID,0.994284
2009-03-14, 03:25:00,VALID,916.556,VALID,0,VALID,100,VALID,-0.135847,VALID,18.9047,VALID,143,VALID,1.73935
2009-03-14, 03:26:00,VALID,916.55,VALID,0,VALID,100,VALID,-0.101885,VALID,18.9119,VALID,138,VALID,1.35328
2009-03-14, 03:27:00,VALID,916.522,VALID,0,VALID,100,VALID,-0.118866,VALID,18.9156,VALID,144,VALID,1.3888
2009-03-14, 03:28:00,VALID,916.509,VALID,0,VALID,100,VALID,-0.101885,VALID,18.8922,VALID,140,VALID,1.38027
2009-03-14, 03:29:00,VALID,916.491,VALID,0,VALID,100,VALID,-0.101885,VALID,18.8897,VALID,136,VALID,1.35042
2009-03-14, 03:30:00,VALID,916.474,VALID,0,VALID,100,VALID,-0.118866,VALID,18.8628,VALID,126,VALID,1.3816
2009-03-14, 03:31:00,VALID,916.468,VALID,0,VALID,100,VALID,-0.118866,VALID,18.8797,VALID,132,VALID,0.95827
2009-03-14, 03:32:01,VALID,916.471,VALID,0,VALID,100,VALID,-0.118866,VALID,18.8728,VALID,118,VALID,0.885861
2009-03-14, 03:33:00,VALID,916.481,VALID,0,VALID,100,VALID,-0.101885,VALID,18.863,VALID,129,VALID,0.925586
2009-03-14, 03:34:00,VALID,916.486,VALID,0,VALID,100,VALID,-0.118866,VALID,18.8433,VALID,121,VALID,0.710193
2009-03-14, 03:35:00,VALID,916.486,VALID,0,VALID,100,VALID,-0.0849042,VALID,18.8376,VALID,138,VALID,0.414993
2009-03-14, 03:36:01,VALID,916.491,VALID,0,VALID,100,VALID,-0.118866,VALID,18.8271,VALID,116,VALID,0.628997
2009-03-14, 03:37:00,VALID,916.485,VALID,0,VALID,100,VALID,-0.118866,VALID,18.8243,VALID,120,VALID,0.873397
2009-03-14, 03:38:01,VALID,916.483,VALID,0,VALID,100,VALID,-0.0339617,VALID,18.8099,VALID,120,VALID,0.782138
2009-03-14, 03:39:00,VALID,916.472,VALID,0,VALID,100,VALID,0,VALID,18.8032,VALID,119,VALID,0.35191
2009-03-14, 03:40:01,VALID,916.476,VALID,0,VALID,100,VALID,0,VALID,18.7967,VALID,127,VALID,0.425595
2009-03-14, 03:41:00,VALID,916.473,VALID,0,VALID,100,VALID,-0.0169808,VALID,18.7967,VALID,110,VALID,0.445822
2009-03-14, 03:42:00,VALID,916.471,VALID,0,VALID,100,VALID,0,VALID,18.7972,VALID,123,VALID,0.733842
2009-03-14, 03:43:00,VALID,916.47,VALID,0,VALID,100,VALID,-0.0169808,VALID,18.7898,VALID,127,VALID,0.66673